Pardubice, Czech Republic

2:20 AM CEST on August 20, 2017 (GMT +0200)
Pardubice

Weather History for LKPD - March, 2012

Change the Weather History Date:

Friday, March 2, 2012

  Actual Average Record
Temperature  
Mean Temperature 44 °F -  
Max Temperature 50 °F - - ()
Min Temperature 37 °F - - ()
Degree Days  
Heating Degree Days 22    
Moisture  
Dew Point 39 °F    
Average Humidity 81    
Maximum Humidity 93    
Minimum Humidity 62    
Precipitation  
Precipitation 0.00 in - - ()
Sea Level Pressure  
Sea Level Pressure 30.26 in    
Wind  
Wind Speed 8 mph ()    
Max Wind Speed 15 mph    
Max Gust Speed -    
Visibility 5.0 miles    
Events      
T = Trace of Precipitation, MM = Missing Value Source: Averaged Metar Reports

Daily Weather History Graph

Daily Weather History Graph

Search for Another Location

Airport or City:

Trip Planner

Search our weather history database for the weather conditions in past years. The results will help you decide how hot, cold, wet, or windy it might be!

Date:

Astronomy

Mar. 02, 2012 Rise Set
Actual Time 6:37 AM CET 5:41 PM CET
Civil Twilight 6:05 AM CET 6:13 PM CET
Nautical Twilight 5:28 AM CET 6:51 PM CET
Astronomical Twilight 4:50 AM CET 7:28 PM CET
Moon 11:09 AM CET (3/2) 2:41 AM CET (3/2)
Length of Visible Light 12h 08m
Length of Day
11h 03m
Waxing Gibbous, 64% of the Moon is Illuminated
Mar 2
Waxing Gibbous
Mar 8
Full
Mar 15
Last Quarter
Mar 22
New
Mar 30
First Quarter

Hourly Weather History & Observations

Time (CET) Temp. Windchill Dew Point Humidity Pressure Visibility Wind Dir Wind Speed Gust Speed Precip Events Conditions
12:00 AM 46.4 °F 42.4 °F 42.8 °F 87% 30.21 in 6.2 mi West 8.1 mph - N/A   Mostly Cloudy
1:00 AM 44.6 °F 40.2 °F 42.8 °F 93% 30.21 in 6.2 mi West 8.1 mph - N/A   Mostly Cloudy
2:00 AM 46.4 °F 43.5 °F 42.8 °F 87% 30.21 in 6.2 mi West 5.8 mph - N/A   Overcast
3:00 AM 46.4 °F 42.9 °F 42.8 °F 87% 30.21 in 4.3 mi West 6.9 mph - N/A   Mostly Cloudy
4:00 AM 46.4 °F 41.9 °F 42.8 °F 87% 30.21 in 3.7 mi West 9.2 mph - N/A   Mostly Cloudy
5:00 AM 44.6 °F 40.2 °F 41.0 °F 87% 30.21 in 3.1 mi West 8.1 mph - N/A   Mostly Cloudy
6:00 AM 46.4 °F 41.5 °F 42.8 °F 87% 30.24 in 3.7 mi West 10.4 mph - N/A   Mostly Cloudy
6:42 AM 42.8 °F 38.0 °F 41.0 °F 93% 30.24 in 2.5 mi West 8.1 mph - N/A   Overcast
7:00 AM 42.8 °F 38.0 °F 41.0 °F 93% 30.24 in 2.5 mi West 8.1 mph - N/A   Overcast
7:43 AM 42.8 °F 37.5 °F 37.4 °F 81% 30.24 in 3.7 mi WNW 9.2 mph - N/A   Overcast
8:00 AM 44.6 °F 39.2 °F 39.2 °F 81% 30.24 in 3.7 mi WNW 10.4 mph - N/A   Overcast
9:00 AM 44.6 °F 39.2 °F 39.2 °F 81% 30.24 in 4.3 mi West 10.4 mph - N/A   Overcast
10:00 AM 46.4 °F 40.1 °F 37.4 °F 71% 30.27 in 4.3 mi WNW 15.0 mph - N/A   Overcast
11:00 AM 44.6 °F 38.4 °F 39.2 °F 81% 30.27 in 4.3 mi WNW 12.7 mph - N/A   Overcast
12:00 PM 46.4 °F 40.7 °F 37.4 °F 71% 30.27 in 4.3 mi WNW 12.7 mph - N/A   Overcast
1:00 PM 46.4 °F 40.4 °F 37.4 °F 71% 30.27 in 6.2 mi WNW 13.8 mph - N/A   Overcast
2:00 PM 46.4 °F 41.5 °F 37.4 °F 71% 30.27 in 6.2 mi West 10.4 mph - N/A   Overcast
3:00 PM 50.0 °F - 37.4 °F 62% 30.27 in 6.2 mi WNW 11.5 mph - N/A   Mostly Cloudy
4:00 PM 48.2 °F - 37.4 °F 66% 30.27 in 6.2 mi WNW 11.5 mph - N/A   Partly Cloudy
5:00 PM 48.2 °F - 37.4 °F 66% 30.27 in 6.2 mi WNW 6.9 mph - N/A   Partly Cloudy
6:00 PM 46.4 °F 43.5 °F 37.4 °F 71% 30.27 in 6.2 mi WNW 5.8 mph - N/A   Mostly Cloudy
7:00 PM 42.8 °F 40.1 °F 37.4 °F 81% 30.30 in 6.2 mi West 4.6 mph - N/A   Mostly Cloudy
8:00 PM 42.8 °F - 37.4 °F 81% 30.30 in 6.2 mi WSW 2.3 mph - N/A   Mostly Cloudy
9:00 PM 41.0 °F 38.0 °F 35.6 °F 81% 30.30 in 6.2 mi WSW 4.6 mph - N/A   Mostly Cloudy
10:00 PM 37.4 °F - 33.8 °F 87% 30.33 in 6.2 mi WSW 1.2 mph - N/A   Partly Cloudy
11:00 PM 39.2 °F 35.9 °F 37.4 °F 93% 30.33 in 6.2 mi NE 4.6 mph - N/A   Mostly Cloudy